Regional Weather Roundup
Issued by NWS Green Bay, WI

Home | Current Version | Previous Version | Text Only | Print | Product List | Glossary On
Versions: 1 2 3 4 5 6 7 8 9 10 11 12 13 14 15 16 17 18 19 20 21 22 23 24 25 26 27 28 29 30 31 32 33 34 35 36 37 38 39 40 41 42 43 44 45 46 47 48 49 50
000
ASUS43 KGRB 230511
RWRGRB

NORTH-CENTRAL AND NORTHEAST WISCONSIN REGIONAL WEATHER ROUNDUP
NATIONAL WEATHER SERVICE GREEN BAY WI
1100 PM CST WED FEB 22 2017

WIZ005-009-010>012-018-019-230600-
NORTH CENTRAL WISCONSIN

CITY           SKY/WX    TMP DP  RH WIND       PRES   REMARKS
IRONWOOD       LGT SNOW  34  32  93 N8        29.68S VSB 1
MANITOWISH WTR CLOUDY    32  32 100 N9G18     29.60R
ARBOR VITAE    RAIN      37  35  95 N12G17      N/A
EAGLE RIVER    CLOUDY    36  36 100 NE8       29.58R
LAND O LAKES   LGT SNOW  34  34 100 NE6       29.62R
RHINELANDER    FOG       41  41 100 N6        29.56S VSB 3/4
PHILLIPS       LGT RAIN  36  35  97 N7        29.60R
ANTIGO         CLOUDY    32  32  99 CALM      29.56S
TOMAHAWK       FOG       38  38  97 CALM      29.57R VSB 1/2
MERRILL        NOT AVBL
$$

WIZ013-073-230600-
NORTHEAST WISCONSIN

CITY           SKY/WX    TMP DP  RH WIND       PRES   REMARKS
IRON MOUNTAIN  CLOUDY    41  37  86 N5        29.56S
MARINETTE      CLEAR     39  37  92 N7        29.54S
OCONTO         CLEAR     38  37  96 N3        29.54R
$$

WIZ017-030-035>037-045-230600-
CENTRAL WISCONSIN

CITY           SKY/WX    TMP DP  RH WIND       PRES   REMARKS
MEDFORD        MOCLDY    35  34  99 CALM      29.55S FOG
WAUSAU         CLOUDY    37  35  92 CALM      29.53F
MOSINEE        MOCLDY    37  37 100 CALM      29.56F
MARSHFIELD     PTCLDY    40  35  83 W8        29.55S
WISC RAPIDS    CLEAR     34  33  96 SW3       29.58R
STEVENS POINT  CLEAR     31  31 100 CALM      29.57S
WAUPACA        CLEAR     38  33  83 W3        29.56S
SHAWANO        CLEAR     40  37  87 CALM      29.55S
CLINTONVILLE   PTCLDY    36  34  93 NW3       29.55S
WAUTOMA        NOT AVBL
$$

WIZ038-039-048-051-230600-
FOX VALLEY

CITY           SKY/WX    TMP DP  RH WIND       PRES   REMARKS
NWS GREEN BAY  CLEAR     40  40 100 NW5       29.53R
APPLETON       PTCLDY    41  39  93 NW8       29.52S
OSHKOSH        CLEAR     46  41  82 W6        29.54R
FOND DU LAC    CLEAR     49  39  68 W7        29.55R
$$

WIZ022-050-052-230600-
EAST CENTRAL WISCONSIN

CITY           SKY/WX    TMP DP  RH WIND       PRES   REMARKS
EPHRAIM        FOG       36  36 100 N12       29.52R VSB 1/4
WASHINGTON ISL FOG       35  35  99 N10       29.52S VSB 1/2
STURGEON BAY   PTCLDY    38  37  97 NW6       29.53R FOG
MANITOWOC      CLEAR     38  37  97 W3        29.52S FOG
SHEBOYGAN      CLEAR     47  45  93 W9        29.52R
$$

LMZ563-521-522-541>543-230600-
LAKESHORE

STATION/POSITION TIME  TEMP    WIND        PRES    VSBY  WAVE
                       AIR SEA DIR/SP/G                  HT/PER
                 (UTC) (F)     (DEG/KT/KT) (MB)    (MI)  (FT/S)
SHEBOYGAN LKSHOR 0500   47     230/  3/  3  999.7R
KEWAUNEE LKSHORE 0448   38     300/  2/  5  999.2F
NORTHPORT PIER   0440   36     320/  6/ 11 1000.0S
SISTER BAY LKSHO 0420   36      20/  4/  7   N/A
CHAMBERS ISLAND  0440   34     340/  9/ 11 1000.0S
MENOMINEE LKSHOR 0448   39     320/ 11/ 12  999.7R
$$




USA.gov is the U.S. government's official web portal to all federal, state and local government web resources and services.